DW4524 Weather Reports


time (UTC)temp
F
wind
direction
speed
knots
gust
knots
rain 1hr
in
rain 24hr
in
rain mn
in
humidity
%
barometer
mb
20260507235903 62 303 1.7 5.2 0.00 0.24 0.02 27 1014.0
20260507235403 63 278 2.6 6.1 0.00 0.24 0.02 27 1014.0
20260507234903 63 311 2.6 10.4 0.00 0.24 0.02 25 1013.9
20260507234403 63 209 3.5 7.0 0.00 0.25 0.02 24 1013.9
20260507233903 63 307 1.7 4.3 0.00 0.25 0.02 26 1013.9
20260507232903 62 282 1.7 6.1 0.00 0.25 0.02 25 1013.9
20260507232404 62 285 2.6 4.3 0.00 0.26 0.02 24 1013.9
20260507231903 63 284 1.7 4.3 0.00 0.26 0.02 26 1014.0
20260507231403 63 286 0.9 5.2 0.00 0.26 0.02 27 1013.9
20260507230904 63 251 2.6 6.1 0.00 0.26 0.02 26 1014.0
20260507230403 62 265 2.6 8.7 0.00 0.27 0.02 26 1014.0
20260507225903 62 316 1.7 4.3 0.00 0.27 0.02 27 1014.0
20260507225403 63 284 2.6 7.0 0.00 0.27 0.02 26 1014.0
20260507224903 63 304 4.3 12.2 0.00 0.28 0.02 25 1014.1
20260507223904 63 277 3.5 8.7 0.00 0.28 0.02 26 1014.0
20260507223404 64 289 4.3 10.4 0.00 0.29 0.02 24 1014.0
20260507222903 64 252 2.6 7.8 0.00 0.29 0.02 24 1014.1
20260507222403 64 280 5.2 8.7 0.00 0.29 0.02 24 1014.1
20260507221904 64 293 2.6 7.8 0.00 0.30 0.02 26 1014.0
20260507221403 64 215 5.2 12.2 0.00 0.30 0.02 25 1014.1
20260507220904 64 225 7.0 10.4 0.00 0.31 0.02 24 1014.1
20260507220404 64 260 5.2 10.4 0.00 0.31 0.02 23 1014.2
20260507215904 65 217 6.1 13.9 0.00 0.31 0.02 23 1014.2
20260507215404 65 270 6.1 13.0 0.00 0.32 0.02 25 1014.2
20260507214904 64 276 6.1 11.3 0.00 0.33 0.02 26 1014.3
20260507214404 64 281 6.1 10.4 0.00 0.33 0.02 23 1014.3
20260507213903 65 251 5.2 13.9 0.00 0.34 0.02 25 1014.2
20260507213404 65 249 5.2 10.4 0.00 0.35 0.02 29 1014.3
20260507212404 63 232 2.6 7.0 0.00 0.41 0.02 28 1014.5
20260507211903 63 264 4.3 7.8 0.00 0.42 0.02 28 1014.6
20260507211404 63 296 1.7 7.8 0.00 0.42 0.02 28 1014.6
20260507210904 63 315 2.6 6.1 0.00 0.42 0.02 28 1014.7
20260507210403 62 356 2.6 7.0 0.00 0.42 0.02 29 1014.8
20260507205903 62 13 4.3 10.4 0.00 0.42 0.02 30 1014.9
20260507205404 62 340 2.6 7.0 0.00 0.42 0.02 30 1015.0
20260507204903 62 313 4.3 10.4 0.00 0.42 0.02 29 1015.1
20260507204403 62 269 4.3 10.4 0.00 0.42 0.02 29 1015.2
20260507203904 62 275 2.6 10.4 0.00 0.42 0.02 29 1015.2
20260507202904 63 304 4.3 10.4 0.00 0.42 0.02 29 1015.3
20260507202400 62 224 4.3 8.7 0.00 0.42 0.02 29 1015.4
20260507201901 62 123 2.6 7.0 0.00 0.42 0.02 30 1015.5
20260507201401 62 2 2.6 10.4 0.00 0.42 0.02 30 1015.6
20260507200901 62 226 1.7 10.4 0.00 0.42 0.02 30 1015.6
20260507195401 62 249 3.5 7.8 0.00 0.42 0.02 29 1015.9
20260507194901 61 265 2.6 8.7 0.00 0.42 0.02 33 1015.7
20260507194401 61 279 4.3 11.3 0.00 0.42 0.02 33 1016.0
20260507193901 61 295 5.2 11.3 0.00 0.42 0.02 30 1016.0
20260507192901 61 283 1.7 8.7 0.00 0.42 0.02 28 1016.1
20260507192401 61 344 1.7 7.0 0.00 0.42 0.02 30 1016.1
20260507191901 61 264 4.3 11.3 0.00 0.42 0.02 30 1016.2
20260507190901 61 285 3.5 7.0 0.00 0.42 0.02 28 1016.2
20260507190401 61 294 3.5 7.8 0.00 0.42 0.02 30 1016.3
20260507185901 61 278 1.7 5.2 0.00 0.42 0.02 28 1016.3
20260507185401 61 210 3.5 10.4 0.00 0.42 0.02 26 1016.4
20260507183901 60 218 2.6 6.1 0.00 0.42 0.02 26 1016.5
20260507183401 59 220 0.9 7.0 0.00 0.42 0.02 27 1016.4
20260507182401 59 280 1.7 4.3 0.00 0.42 0.02 28 1016.5
20260507181901 59 265 1.7 2.6 0.00 0.42 0.02 25 1016.4
20260507181401 59 266 1.7 5.2 0.00 0.42 0.02 27 1016.4
20260507180901 58 305 0.9 6.1 0.00 0.42 0.02 26 1016.4
20260507180401 59 245 0.9 4.3 0.00 0.42 0.02 27 1016.5
20260507175901 59 329 0.9 5.2 0.00 0.42 0.02 26 1016.6
20260507175402 59 260 1.7 4.3 0.00 0.42 0.02 27 1016.7
20260507174901 58 305 0.0 2.6 0.00 0.42 0.02 26 1016.7
20260507174401 59 269 2.6 6.1 0.00 0.42 0.02 26 1016.9
20260507173902 58 215 4.3 6.1 0.00 0.42 0.02 28 1016.9
20260507173401 58 298 0.9 5.2 0.00 0.42 0.02 27 1017.0
20260507172902 58 217 1.7 4.3 0.00 0.42 0.02 28 1017.1
20260507172401 58 293 0.9 5.2 0.00 0.42 0.02 28 1017.1
20260507171901 58 302 1.7 2.6 0.00 0.42 0.02 28 1017.1
20260507171401 58 225 1.7 6.1 0.00 0.42 0.02 24 1017.2
20260507170902 58 229 1.7 5.2 0.00 0.42 0.02 26 1017.2
20260507170401 58 231 0.0 2.6 0.00 0.42 0.02 30 1017.3
20260507165901 57 252 1.7 5.2 0.00 0.42 0.02 28 1017.2
20260507165401 57 216 1.7 7.0 0.01 0.42 0.02 27 1017.3
20260507163901 56 231 0.9 2.6 0.01 0.42 0.02 25 1017.4
20260507163401 56 240 2.6 6.1 0.01 0.42 0.02 25 1017.5
20260507162902 56 216 1.7 7.0 0.01 0.42 0.02 26 1017.5
20260507162402 56 215 0.9 5.2 0.01 0.42 0.02 27 1017.5
20260507161901 56 286 0.9 6.1 0.01 0.42 0.02 29 1017.4
20260507161402 55 272 2.6 6.1 0.01 0.42 0.02 29 1017.5
20260507160401 55 245 0.0 5.2 0.01 0.42 0.02 30 1017.6
20260507155901 55 225 0.9 2.6 0.01 0.42 0.02 32 1017.6
20260507155401 54 222 0.9 4.3 0.01 0.41 0.01 29 1017.7
20260507154901 54 302 0.9 4.3 0.01 0.41 0.01 30 1017.7
20260507153902 53 196 1.7 5.2 0.01 0.41 0.01 33 1017.8
20260507153402 53 227 0.9 2.6 0.01 0.41 0.01 34 1017.8
20260507152901 52 273 1.7 4.3 0.01 0.41 0.01 35 1017.8
20260507151901 51 250 1.7 6.1 0.01 0.41 0.01 36 1017.7
20260507150902 50 257 1.7 5.2 0.01 0.41 0.01 37 1017.8
20260507150402 50 286 2.6 5.2 0.01 0.41 0.01 38 1017.9
20260507145901 50 210 1.7 5.2 0.01 0.41 0.01 40 1017.8
20260507145401 49 250 1.7 4.3 0.00 0.40 0.00 40 1017.7
20260507144902 49 265 0.9 4.3 0.00 0.40 0.00 41 1017.8
20260507143901 48 306 0.9 2.6 0.00 0.40 0.00 43 1017.9
20260507143402 48 305 1.7 4.3 0.00 0.40 0.00 45 1017.8
20260507142902 47 310 0.9 2.6 0.00 0.40 0.00 46 1017.9
20260507142402 47 324 0.9 2.6 0.00 0.40 0.00 46 1017.8
20260507141902 47 314 0.0 1.7 0.00 0.40 0.00 45 1017.8
20260507140403 46 24 0.0 1.7 0.00 0.40 0.00 46 1017.8
20260507135401 46 338 0.0 0.9 0.00 0.40 0.00 47 1017.8
20260507134402 44 106 0.0 0.9 0.00 0.40 0.00 49 1017.7
20260507133902 43 6 0.0 2.6 0.00 0.40 0.00 49 1017.7
20260507133402 42 349 0.0 1.7 0.00 0.40 0.00 50 1017.6
20260507132901 41 63 0.0 1.7 0.00 0.40 0.00 53 1017.5
20260507132402 39 12 0.9 2.6 0.00 0.40 0.00 55 1017.4
20260507131901 37 30 0.0 2.6 0.00 0.40 0.00 57 1017.3
20260507131401 37 346 0.0 0.9 0.00 0.40 0.00 58 1017.4
20260507130902 36 77 0.0 1.7 0.00 0.40 0.00 59 1017.4
20260507130402 36 42 0.0 1.7 0.00 0.40 0.00 60 1017.4
20260507125901 35 75 0.0 1.7 0.00 0.40 0.00 60 1017.3
20260507125402 35 76 0.0 1.7 0.00 0.40 0.00 60 1017.3
20260507124901 35 51 0.0 1.7 0.00 0.40 0.00 60 1017.2
20260507124402 35 32 0.0 2.6 0.00 0.40 0.00 59 1017.1
20260507123902 34 52 0.9 2.6 0.00 0.40 0.00 59 1017.1
20260507123402 34 42 0.0 1.7 0.00 0.40 0.00 59 1017.1
20260507122902 34 53 0.0 2.6 0.00 0.40 0.00 59 1017.1
20260507122401 34 62 0.0 0.0 0.00 0.40 0.00 60 1017.0
20260507120902 34 79 0.0 1.7 0.00 0.40 0.00 60 1016.9
20260507115902 33 59 0.0 0.9 0.00 0.40 0.00 61 1016.9
20260507114902 33 74 0.0 0.9 0.00 0.40 0.00 60 1016.9
20260507114402 33 72 0.0 1.7 0.00 0.40 0.00 60 1017.0
20260507113901 33 307 0.0 1.7 0.00 0.40 0.00 60 1017.1
20260507113402 33 91 0.0 0.9 0.00 0.40 0.00 59 1017.1
20260507112402 33 57 0.0 0.0 0.00 0.40 0.00 59 1017.0
20260507111402 33 76 0.0 0.9 0.00 0.40 0.00 59 1017.0
20260507110402 33 73 0.0 0.9 0.00 0.40 0.00 60 1017.1
20260507105902 33 75 0.0 1.7 0.00 0.40 0.00 60 1016.9
20260507104902 33 45 0.0 0.9 0.00 0.40 0.00 60 1016.8
20260507104402 33 79 0.0 1.7 0.00 0.40 0.00 60 1016.9
20260507103902 33 77 0.0 1.7 0.00 0.40 0.00 60 1016.9
20260507102902 33 70 0.0 1.7 0.00 0.40 0.00 61 1016.9
20260507101402 33 83 0.0 1.7 0.00 0.40 0.00 61 1017.1
20260507100902 33 100 0.0 1.7 0.00 0.40 0.00 61 1017.2
20260507100402 33 85 0.0 0.0 0.00 0.40 0.00 61 1017.2
20260507095902 32 80 0.0 0.0 0.00 0.40 0.00 62 1017.2
20260507095402 32 35 0.0 0.0 0.00 0.40 0.00 63 1017.2
20260507094902 32 44 0.0 0.0 0.00 0.40 0.00 64 1017.2
20260507094403 32 70 0.0 0.0 0.00 0.40 0.00 64 1017.1
20260507093902 32 80 0.0 0.0 0.00 0.40 0.00 64 1017.1
20260507093402 32 60 0.0 0.9 0.00 0.40 0.00 65 1017.1
20260507092902 32 68 0.0 0.9 0.00 0.40 0.00 65 1017.2
20260507092402 32 80 0.0 0.0 0.00 0.40 0.00 66 1017.2
20260507091902 31 86 0.0 0.0 0.00 0.40 0.00 67 1017.2
20260507090402 30 86 0.0 0.0 0.00 0.40 0.00 73 1017.4
20260507085903 30 86 0.0 0.0 0.00 0.40 0.00 74 1017.6
20260507085402 30 86 0.0 0.0 0.00 0.40 0.00 74 1017.5
20260507084903 30 52 0.0 0.0 0.00 0.40 0.00 75 1017.5
20260507084402 30 79 0.0 0.0 0.00 0.40 0.00 76 1017.5
20260507083902 30 82 0.0 0.0 0.00 0.40 0.00 76 1017.5
20260507082903 30 80 0.0 0.0 0.00 0.40 0.00 79 1017.4
20260507082402 30 92 0.0 0.0 0.00 0.40 0.00 81 1017.6
20260507081902 30 78 0.0 0.0 0.00 0.40 0.00 83 1017.6
20260507081402 29 76 0.0 0.0 0.00 0.40 0.00 86 1017.6
20260507080902 29 82 0.0 0.0 0.00 0.40 0.00 87 1017.6
20260507080402 28 76 0.0 0.0 0.00 0.40 0.00 89 1017.7
20260507075902 28 276 0.0 0.0 0.00 0.40 0.00 89 1017.8
20260507075402 28 282 0.0 0.0 0.00 0.40 0.00 88 1017.8
20260507074903 28 85 0.0 0.0 0.00 0.40 0.00 89 1017.7
20260507074403 28 85 0.0 0.0 0.00 0.40 0.00 90 1017.8
20260507073903 28 85 0.0 0.0 0.00 0.40 0.00 91 1017.9
20260507073403 28 88 0.0 0.0 0.00 0.40 0.00 91 1017.9
20260507072902 28 102 0.0 0.0 0.00 0.40 0.00 92 1018.1
20260507072402 28 102 0.0 0.0 0.00 0.40 0.00 93 1018.0
20260507071902 28 86 0.0 0.0 0.00 0.40 0.00 93 1018.0
20260507071403 27 12 0.0 0.0 0.00 0.40 0.00 93 1018.1
20260507070903 27 87 0.0 0.0 0.00 0.40 0.00 94 1017.9
20260507070403 27 82 0.0 0.9 0.00 0.40 0.00 93 1018.0
20260507065402 27 82 0.0 0.0 0.20 0.40 0.00 93 1018.0
20260507064403 27 82 0.0 0.0 0.20 0.40 0.00 93 1018.1
20260507063903 27 82 0.0 0.0 0.20 0.40 0.00 93 1018.2
20260507063403 27 82 0.0 0.0 0.20 0.40 0.00 93 1018.1
20260507061903 28 82 0.0 0.0 0.20 0.40 0.00 93 1018.0
20260507061402 28 82 0.0 0.0 0.20 0.40 0.00 93 1018.0
20260507060902 29 82 0.0 0.0 0.20 0.40 0.00 93 1018.0
20260507055902 29 77 0.0 0.9 0.00 0.35 0.20 93 1018.1
20260507055403 29 84 0.0 0.9 0.00 0.35 0.20 93 1017.9
20260507054903 29 84 0.0 0.0 0.00 0.35 0.20 93 1017.9
20260507053903 29 84 0.0 0.0 0.00 0.35 0.20 92 1017.8
20260507053403 29 84 0.0 0.9 0.00 0.35 0.20 92 1017.9
20260507052902 30 94 0.0 0.9 0.00 0.35 0.20 92 1017.9
20260507052403 30 86 0.0 0.0 0.00 0.35 0.20 92 1017.8
20260507051403 30 107 0.0 0.0 0.00 0.35 0.20 92 1017.7
20260507050903 30 105 0.0 0.0 0.00 0.35 0.20 92 1017.8
20260507050402 30 82 0.0 1.7 0.00 0.35 0.20 92 1017.6
20260507045402 30 72 0.0 2.6 0.00 0.35 0.20 92 1017.7
20260507044403 31 76 0.9 1.7 0.00 0.35 0.20 91 1017.7
20260507043903 31 233 0.0 0.9 0.00 0.35 0.20 91 1017.6
20260507043403 31 245 0.0 1.7 0.00 0.35 0.20 91 1017.6
20260507041403 31 240 0.0 0.0 0.00 0.35 0.20 91 1017.8
20260507040903 31 78 0.0 0.0 0.00 0.35 0.20 90 1017.8
20260507040403 31 79 0.0 0.0 0.00 0.35 0.20 90 1017.8
20260507035903 30 81 0.0 0.0 0.00 0.35 0.20 90 1017.8
20260507035402 31 81 0.0 0.0 0.00 0.35 0.20 89 1017.8
20260507034903 31 81 0.0 0.0 0.00 0.35 0.20 89 1017.8
20260507034404 31 250 0.0 0.9 0.00 0.35 0.20 88 1017.8
20260507033903 31 226 0.0 0.0 0.00 0.35 0.20 88 1017.9
20260507033403 31 252 0.0 0.0 0.00 0.35 0.20 87 1017.8
20260507032402 31 246 0.0 0.0 0.00 0.35 0.20 87 1017.8
20260507031903 31 279 0.0 0.0 0.00 0.35 0.20 87 1017.6
20260507031403 31 45 0.0 1.7 0.00 0.35 0.20 86 1017.7
20260507030903 31 94 0.0 0.0 0.00 0.35 0.20 85 1017.6
20260507030403 32 84 0.0 0.9 0.00 0.35 0.20 85 1017.5
20260507025903 32 90 0.0 0.0 0.00 0.35 0.20 85 1017.4
20260507024903 32 255 0.0 0.9 0.00 0.35 0.20 83 1017.4
20260507024403 32 221 0.0 2.6 0.00 0.35 0.20 83 1017.4
20260507023903 33 250 0.0 0.0 0.00 0.35 0.20 83 1017.4
20260507022403 33 218 0.9 2.6 0.00 0.35 0.20 80 1017.4
20260507021903 33 229 0.9 2.6 0.00 0.35 0.20 79 1017.4
20260507021404 34 215 0.9 2.6 0.00 0.35 0.20 78 1017.4
20260507020903 34 227 0.9 2.6 0.00 0.35 0.20 77 1017.2
20260507020403 34 222 1.7 2.6 0.00 0.35 0.20 77 1017.2
20260507015903 35 220 1.7 2.6 0.00 0.35 0.20 77 1017.1
20260507015403 35 215 0.0 1.7 0.00 0.35 0.20 76 1017.1
20260507014903 36 248 0.0 1.7 0.00 0.35 0.20 74 1017.2
20260507013903 37 222 1.7 4.3 0.01 0.35 0.20 71 1017.2
20260507013403 37 217 1.7 4.3 0.01 0.35 0.20 71 1017.2
20260507012903 38 223 0.9 4.3 0.01 0.35 0.20 70 1017.1
20260507012403 38 232 0.0 2.6 0.01 0.35 0.20 71 1017.1
20260507011903 38 255 1.7 4.3 0.01 0.35 0.20 69 1017.2
20260507011403 38 230 1.7 5.2 0.01 0.35 0.20 70 1017.1
20260507010903 38 208 2.6 5.2 0.02 0.35 0.20 68 1017.1
20260507010403 38 215 2.6 5.2 0.02 0.35 0.20 69 1017.1
20260507005903 39 207 2.6 6.1 0.02 0.35 0.20 68 1017.0
20260507005403 39 216 0.9 4.3 0.02 0.35 0.20 69 1016.9
20260507004903 38 212 2.6 5.2 0.02 0.36 0.20 68 1016.9
20260507004403 38 210 1.7 4.3 0.02 0.35 0.19 68 1016.9
20260507003903 38 237 1.7 5.2 0.02 0.35 0.19 67 1016.9
20260507002903 40 211 1.7 6.1 0.02 0.35 0.19 64 1016.9
20260507002403 40 240 1.7 4.3 0.03 0.35 0.19 65 1016.8
20260507001903 40 266 0.9 2.6 0.03 0.35 0.19 67 1016.8
20260507001404 39 118 0.0 2.6 0.03 0.35 0.19 68 1016.8
20260507000904 39 230 1.7 4.3 0.02 0.34 0.18 68 1016.9
20260507000405 39 262 1.7 7.0 0.03 0.34 0.18 64 1016.9